Wind_Speed
33 34 37 39 43 49 53 54 53 51 50 49 48 48 49 49 50 51 51 50 50 50 50 49 47 46 45 43 41 40 38 37 36 35 34 34 34 34 34 34 33 33 31 30 28 27 26 24 23 23 23 22 22 22 22 21 20 18 17 16 15 16 16
29 33 36 37 41 49 54 55 54 53 51 50 49 49 49 51 52 52 51 51 51 50 50 49 49 48 46 44 42 41 40 39 38 37 36 35 33 32 33 33 34 34 32 31 30 29 28 26 25 25 24 24 23 23 23 22 21 20 18 17 16 17 17
28 32 35 37 42 50 55 55 55 54 53 52 51 50 51 51 51 52 52 51 51 50 50 50 50 49 47 45 44 42 40 40 39 38 37 36 34 33 32 32 32 32 32 32 31 30 29 28 27 26 26 25 25 25 24 23 23 21 20 18 18 18 18
30 33 35 40 46 50 53 54 55 55 55 54 53 52 52 51 50 51 52 52 51 51 51 50 50 49 48 46 45 43 42 41 40 39 38 37 35 34 33 32 30 30 31 31 31 30 30 29 27 27 27 26 26 26 25 24 24 23 21 20 19 19 19
31 33 32 38 45 48 50 53 55 56 56 56 56 54 53 51 50 51 51 52 52 51 50 49 49 49 49 48 46 45 44 42 41 40 39 38 37 36 35 33 31 30 29 29 30 30 29 29 28 28 28 27 27 27 26 25 25 24 22 21 20 20 20
28 31 34 39 43 45 49 52 54 56 57 57 57 56 54 53 53 52 52 52 52 51 50 50 50 49 49 48 47 46 45 44 43 42 41 40 39 38 37 35 33 31 29 29 30 30 30 29 29 29 29 28 28 29 27 26 26 25 24 23 22 21 21
30 32 36 39 41 44 48 50 52 54 55 56 57 56 55 54 54 54 53 53 53 52 52 51 50 49 47 46 46 47 46 45 44 43 43 42 41 40 39 37 35 33 30 30 29 30 30 31 30 30 30 30 30 30 28 27 27 26 25 24 23 22 22
30 29 34 37 39 42 44 47 50 51 52 54 55 56 55 54 55 55 55 55 54 54 53 52 51 49 47 46 46 45 45 44 44 43 43 43 43 42 41 39 37 34 33 32 31 30 30 31 32 32 31 31 32 31 29 29 28 27 27 26 25 23 23
25 25 28 31 34 36 38 43 46 47 49 52 53 54 54 54 55 56 57 56 55 55 55 53 53 51 49 48 47 45 44 44 44 43 43 43 43 43 42 41 38 36 35 34 33 32 31 31 32 33 33 33 33 33 31 30 29 29 29 28 26 25 25
26 26 25 24 27 31 34 38 40 42 45 48 50 52 53 55 56 57 57 56 56 56 55 54 54 53 51 50 48 47 46 46 45 44 44 44 44 43 42 41 39 38 37 35 35 34 33 32 32 33 34 35 35 35 33 32 31 31 30 29 28 27 26
22 23 23 23 25 28 30 33 36 40 43 45 48 50 53 54 56 56 56 56 56 56 55 54 54 54 53 51 50 50 49 48 47 46 46 46 45 44 43 42 41 39 38 37 37 36 34 33 33 34 36 37 37 36 35 34 33 33 32 31 30 29 28
16 16 19 22 23 25 28 31 34 38 41 44 47 49 51 53 54 55 55 56 55 55 55 55 54 54 54 52 52 52 51 50 49 48 47 46 45 44 43 43 42 40 39 38 38 37 36 36 35 36 37 38 38 38 36 35 35 34 34 33 32 31 30
14 14 16 18 19 22 25 29 33 36 39 41 45 47 49 51 53 54 54 54 54 54 54 54 54 54 54 53 52 52 52 51 49 48 48 47 45 45 44 43 42 41 40 39 39 39 38 37 37 37 37 38 39 39 38 37 36 36 35 35 34 33 32
14 14 16 16 17 19 23 27 31 34 36 39 42 45 47 49 51 52 53 53 53 53 53 54 54 53 52 52 52 53 52 50 49 49 48 47 46 45 45 44 43 42 41 40 40 40 39 38 38 38 38 38 39 40 39 39 38 38 37 37 36 35 33
13 14 16 18 19 20 21 25 28 31 34 37 39 42 44 48 49 50 51 53 53 53 53 53 53 51 51 52 53 52 51 49 49 50 49 49 47 46 46 45 44 43 42 41 41 40 40 39 39 39 39 39 39 40 41 41 40 40 40 38 37 36 35
13 14 16 18 19 19 20 22 24 27 30 34 38 40 43 45 48 49 51 52 52 53 53 52 52 50 51 53 52 51 50 50 50 50 50 49 48 47 46 46 45 44 43 42 41 41 41 40 40 41 41 40 40 41 42 43 43 42 41 40 38 36 35
16 19 21 19 17 18 18 19 21 22 26 30 34 38 41 44 46 48 50 51 51 51 51 51 50 50 51 52 51 50 51 50 50 50 50 49 48 47 47 46 46 45 44 43 43 42 42 42 42 41 41 41 41 42 44 45 44 43 42 40 38 37 35
21 26 27 22 19 19 20 21 20 19 21 25 30 35 39 42 44 46 48 49 49 49 50 50 50 50 51 51 50 51 51 50 50 50 49 49 48 48 47 46 46 46 45 45 44 43 44 43 42 42 42 42 43 43 45 46 44 43 42 40 39 37 36
25 28 28 25 22 22 23 23 21 19 19 22 25 31 35 39 43 44 45 45 46 47 49 49 49 49 50 50 50 50 50 50 50 50 49 49 49 48 47 47 47 47 47 46 44 44 45 44 43 43 43 44 44 44 45 46 45 44 43 41 39 38 36
27 27 27 26 24 24 25 26 24 21 19 19 22 27 31 36 39 40 41 43 44 46 47 47 48 48 49 50 50 50 50 50 50 49 49 49 49 49 48 48 48 48 48 47 46 46 46 45 44 45 45 45 45 45 45 46 46 45 44 42 41 38 36
25 24 25 25 25 25 26 26 24 21 18 17 20 25 30 34 35 37 40 43 43 44 45 46 47 48 48 49 50 50 50 50 50 50 50 50 50 49 49 49 49 48 49 49 48 48 47 46 45 45 45 45 46 46 46 46 47 47 45 43 41 39 37
22 22 23 24 25 25 25 24 23 20 17 14 16 21 26 31 33 36 39 41 42 42 43 44 45 46 47 48 49 49 49 49 49 49 49 49 49 49 49 49 49 49 49 49 48 49 48 47 46 46 46 46 47 47 47 47 47 48 46 44 42 40 38
20 20 20 22 23 23 22 21 19 15 12 11 13 15 20 26 30 34 36 39 40 41 42 43 44 45 45 46 47 48 47 46 47 47 48 48 49 50 49 49 49 49 49 48 48 49 49 48 48 47 46 47 47 47 48 47 47 48 47 44 41 40 40
16 15 16 17 18 18 17 16 12 8 6 8 9 10 14 20 25 29 33 36 38 39 41 42 42 42 44 45 46 44 42 42 44 45 46 48 48 49 49 49 49 49 49 48 48 49 49 48 49 48 47 47 47 47 48 47 46 47 47 44 42 41 41
11 11 10 10 10 10 10 9 7 6 6 7 9 9 10 14 20 25 29 32 35 37 39 39 39 40 42 43 41 39 39 40 43 44 45 45 46 48 48 48 48 48 49 49 49 49 49 49 49 48 46 46 47 47 47 47 47 48 47 45 43 42 41
12 11 8 7 5 5 5 6 7 6 6 7 9 10 10 12 16 20 24 27 30 33 34 35 35 36 37 37 37 37 39 41 43 43 42 43 44 45 46 46 47 47 48 49 49 50 51 51 52 51 49 48 47 48 49 48 47 48 48 46 43 41 40
15 14 12 11 9 9 9 8 8 8 7 7 8 10 11 12 12 15 18 21 24 26 27 28 28 29 30 32 34 36 39 41 41 40 40 41 42 44 45 46 46 47 48 48 48 50 51 52 53 53 53 53 52 50 51 51 50 48 48 47 45 42 41
17 17 16 16 15 14 15 13 12 11 10 10 10 10 11 13 12 12 13 15 17 20 21 22 24 26 28 30 32 34 36 38 39 38 38 39 41 42 43 44 46 48 48 48 49 51 52 53 53 54 54 54 53 50 47 48 50 50 48 47 46 43 42
17 17 17 18 17 16 17 17 16 16 15 14 13 12 12 13 13 12 12 13 14 16 17 19 20 23 25 27 30 32 33 35 36 36 37 38 40 41 41 43 46 47 48 50 51 51 52 53 54 54 50 46 46 48 46 45 49 52 50 48 47 45 43
14 15 16 17 17 17 16 16 16 16 16 15 14 13 12 11 11 12 11 11 12 12 13 14 15 17 19 22 25 28 30 31 32 34 36 37 39 40 42 43 45 47 49 50 51 51 53 51 50 51 49 43 43 49 51 50 52 54 54 51 49 46 45
12 14 15 15 16 16 16 16 16 15 16 16 14 13 13 12 10 10 10 9 9 10 10 11 11 12 14 16 19 22 24 26 28 31 33 35 37 40 42 44 46 47 49 50 49 49 47 43 41 44 46 47 50 54 55 55 56 54 54 54 51 47 46
10 12 13 14 14 14 13 14 13 13 13 14 13 13 12 11 10 9 8 7 7 7 7 8 9 10 11 12 14 16 19 22 25 28 30 33 35 38 40 43 45 47 49 49 48 45 41 39 39 40 39 43 53 58 54 54 57 56 54 53 50 48 46
8 10 12 13 14 13 13 12 11 11 10 10 9 9 9 8 8 7 6 5 4 4 4 5 6 7 9 10 11 13 15 18 22 25 28 30 33 37 39 41 43 45 47 48 45 40 38 40 43 44 40 38 43 47 45 44 51 56 56 54 52 50 47
7 8 10 12 12 12 12 12 11 10 9 8 8 7 6 5 5 3 3 1 0 1 2 2 3 4 5 7 9 11 13 16 18 21 24 25 27 31 34 36 38 39 40 45 46 43 41 41 40 43 46 45 39 37 39 44 51 57 58 56 55 54 51
9 9 10 11 12 12 12 12 11 11 10 10 10 8 7 7 6 5 4 4 4 3 3 4 4 5 6 7 8 10 12 13 15 17 20 21 22 25 27 30 33 34 35 40 45 47 48 47 43 41 45 49 46 40 43 51 57 60 60 59 56 53 50
10 11 11 12 13 14 16 16 16 15 14 14 13 11 10 10 9 8 7 6 6 6 5 4 3 3 4 6 8 9 11 12 13 14 16 18 21 23 26 29 32 34 35 37 41 44 47 50 51 48 46 49 51 50 52 57 61 59 60 61 59 54 50
13 12 13 14 16 19 20 20 20 19 19 18 16 15 14 13 12 12 11 9 9 8 7 7 6 5 4 3 3 4 5 7 8 9 11 13 16 19 23 26 29 31 35 37 40 43 44 46 50 53 53 54 56 57 59 61 61 60 62 64 62 58 53
19 18 19 22 24 24 23 23 22 21 22 21 20 19 19 18 17 16 15 14 13 13 12 11 10 10 10 9 7 6 5 4 3 3 4 5 7 9 11 14 18 20 23 27 33 38 43 45 49 53 56 58 59 61 64 65 63 62 63 64 63 61 56
Wind_Direction
206 208 209 210 213 218 221 223 225 226 228 229 228 228 228 228 228 228 229 228 228 228 227 226 226 226 227 227 227 228 228 229 229 230 232 234 236 237 238 239 239 239 238 237 236 236 238 240 242 244 246 248 251 254 255 253 251 250 249 249 250 249 249
205 209 209 207 211 218 222 224 225 225 227 229 229 229 228 229 229 228 229 229 229 229 229 228 228 228 228 227 227 227 228 229 230 231 232 233 235 237 238 239 239 239 239 240 240 238 238 239 241 244 246 248 251 254 255 253 250 248 246 245 246 247 246
207 209 208 208 213 219 222 223 224 225 226 228 228 229 229 230 230 229 229 229 230 230 230 231 230 230 230 229 228 228 229 230 232 232 233 234 234 236 238 239 239 240 240 240 240 239 237 237 239 242 244 247 249 252 253 252 248 246 244 243 244 244 244
215 214 211 214 218 220 221 222 224 225 226 227 228 229 230 231 231 231 230 230 230 230 230 231 232 232 232 232 231 231 230 231 232 233 234 236 236 237 238 239 240 239 239 238 238 237 234 234 236 239 242 244 246 249 250 249 247 244 242 242 242 242 241
221 218 212 216 220 220 220 221 223 224 225 226 227 228 230 231 231 231 232 232 231 232 232 232 232 232 233 233 233 233 233 232 233 233 235 236 237 238 238 239 239 238 238 236 236 235 232 231 232 235 239 241 244 246 246 246 245 242 241 242 242 240 240
219 217 215 219 220 220 220 221 222 224 225 226 226 228 229 230 230 231 232 232 232 233 233 233 234 234 234 234 234 234 235 235 234 234 235 236 237 238 238 238 238 238 237 236 235 233 232 231 231 232 235 238 241 243 243 243 242 241 241 242 241 240 239
224 220 221 222 221 221 222 222 223 224 225 227 227 228 227 227 229 230 231 232 233 232 233 233 234 235 237 236 235 236 236 236 236 236 236 236 237 237 238 238 238 237 237 237 236 234 232 232 231 231 233 236 239 241 241 241 241 241 241 242 242 240 239
231 226 225 224 223 224 223 223 224 222 223 225 225 227 227 225 227 229 229 232 233 232 232 233 234 235 237 237 237 238 238 238 238 238 237 237 237 237 237 238 238 237 237 237 236 234 233 232 232 231 232 234 237 238 239 240 240 242 242 242 242 241 239
239 236 233 228 225 225 224 225 225 222 221 224 225 227 228 226 227 229 230 231 232 232 233 234 235 236 236 236 237 239 239 239 239 239 239 238 237 237 237 238 238 238 237 237 236 236 234 232 232 232 232 234 236 237 238 238 239 241 242 242 242 242 240
247 246 242 235 231 228 226 227 227 224 222 224 224 224 225 227 228 230 230 231 231 233 234 235 235 236 237 236 237 238 238 239 239 240 239 239 239 238 238 238 238 238 237 237 237 237 235 234 234 234 233 233 235 236 236 237 238 239 241 241 242 242 241
255 253 248 243 238 234 231 229 228 227 225 224 223 221 222 225 228 229 230 231 232 233 234 234 234 236 237 236 235 236 237 238 239 240 240 239 240 239 239 239 239 238 237 236 237 237 236 235 235 235 234 233 234 236 236 236 237 239 239 240 241 241 242
265 261 254 249 244 238 235 232 228 228 228 225 223 222 221 222 224 227 230 232 232 233 233 233 234 235 236 236 234 235 237 238 239 239 240 240 241 240 240 240 239 239 238 237 237 236 236 235 235 235 235 234 234 235 236 236 237 239 239 239 240 240 241
260 260 259 255 248 240 236 234 231 230 230 228 226 225 223 222 223 225 228 230 231 232 232 233 233 234 235 235 234 235 237 238 239 239 240 241 241 241 241 241 240 240 239 238 237 237 236 236 236 236 236 235 235 236 236 237 238 239 239 239 239 239 240
255 265 271 267 258 250 242 238 236 234 232 231 230 228 225 224 225 225 226 229 230 231 232 234 234 234 235 235 234 236 238 239 239 239 240 241 242 242 241 241 240 240 239 238 238 238 237 237 237 237 237 237 236 236 236 236 237 238 238 238 238 239 239
264 274 280 279 275 268 258 250 244 240 236 232 230 228 226 225 226 225 225 227 228 230 232 234 234 234 234 234 235 238 239 238 238 238 239 240 241 241 241 241 241 240 239 238 238 239 238 238 239 239 239 239 238 237 236 236 236 237 237 237 237 238 238
275 279 283 286 282 275 271 264 256 249 242 235 231 229 227 226 225 224 224 225 226 229 231 233 233 232 232 234 238 239 238 237 237 238 238 239 240 241 240 240 241 240 239 239 238 238 238 238 239 239 240 240 239 238 238 236 236 236 237 237 237 237 238
272 275 278 282 275 273 280 277 266 255 246 240 236 232 229 227 226 224 224 225 226 227 229 230 231 230 232 237 238 236 235 236 237 237 238 239 240 240 239 240 240 240 240 239 238 238 238 238 238 240 241 241 240 239 239 237 236 236 237 238 237 238 237
266 270 274 273 266 271 284 283 273 262 255 249 242 236 233 230 226 224 224 225 227 227 227 228 230 230 233 236 234 232 234 236 236 237 239 240 240 240 240 239 240 240 240 239 239 239 238 238 238 239 241 242 242 241 240 239 238 237 238 238 238 238 238
262 266 270 270 267 271 279 281 277 271 266 259 249 242 238 232 228 227 227 227 227 226 226 228 231 232 234 234 233 233 235 235 236 237 239 240 240 240 240 239 240 240 240 240 239 239 240 239 239 239 241 242 243 243 242 242 240 239 239 239 238 238 237
258 261 265 268 269 271 274 276 277 275 269 261 254 248 240 234 233 233 232 228 226 225 226 228 230 231 233 234 233 234 234 234 236 238 239 239 239 239 239 239 240 240 240 240 240 240 240 240 240 240 241 243 244 245 245 244 243 242 240 239 238 237 237
253 255 260 265 269 271 272 275 277 277 271 259 250 245 238 234 233 233 231 229 227 226 227 228 229 230 231 232 232 232 233 234 235 236 237 238 238 238 239 239 239 240 240 240 240 240 241 240 241 241 242 243 244 246 246 245 245 245 243 241 239 238 237
250 252 256 262 268 270 272 273 275 277 272 254 241 239 236 233 231 229 228 229 228 228 229 230 230 230 231 232 232 232 232 233 235 236 237 237 237 237 238 239 240 240 240 240 240 241 241 241 241 242 242 243 244 245 246 246 247 248 246 244 242 240 239
248 250 252 258 264 269 270 270 272 274 265 239 226 231 234 232 230 229 228 228 229 229 229 230 231 232 233 233 233 234 235 236 237 237 237 237 237 239 239 240 241 241 240 240 240 241 241 241 240 241 242 243 244 245 246 247 248 250 249 248 246 244 241
240 243 247 254 262 267 267 264 263 259 241 219 215 225 233 232 229 228 228 228 229 229 229 230 233 235 235 234 234 236 239 241 240 240 239 239 240 241 241 241 241 242 241 241 240 240 241 241 241 241 241 242 244 246 247 248 248 250 251 249 247 245 243
213 219 229 239 248 253 249 240 228 214 200 197 200 209 226 234 230 226 227 228 229 230 230 233 236 236 235 235 237 240 242 242 241 240 240 243 244 243 242 242 243 243 243 242 241 241 241 241 241 241 240 241 243 245 247 247 248 250 250 248 246 245 245
178 180 180 182 188 190 185 186 189 186 181 185 192 195 203 217 225 226 228 229 230 231 234 237 239 239 239 240 242 243 241 240 240 241 242 245 246 246 245 246 245 244 244 244 243 243 242 242 242 242 240 239 240 242 243 244 245 247 249 248 245 244 244
154 149 139 132 131 132 137 147 158 158 157 161 172 181 184 189 204 218 224 228 231 235 240 243 244 243 243 242 242 242 241 241 242 244 245 247 248 247 247 247 246 244 245 245 244 243 243 243 244 245 244 242 241 241 242 243 243 244 246 247 246 243 241
141 136 130 123 119 119 121 122 125 128 130 137 148 161 168 171 179 193 208 220 228 235 239 241 241 241 242 242 242 242 242 243 244 246 247 248 248 248 248 247 246 245 246 246 244 243 244 244 244 246 247 246 245 244 245 244 244 244 244 245 245 242 241
139 134 130 126 124 122 120 118 117 116 115 119 128 138 149 160 165 171 186 204 216 225 231 235 238 240 242 243 243 244 245 246 247 249 249 249 250 251 250 249 247 246 245 245 244 244 245 245 244 244 245 244 244 245 246 246 247 247 246 245 243 241 239
141 135 131 128 126 124 124 123 118 114 113 114 117 124 133 145 156 162 174 191 204 215 224 231 237 242 245 247 247 248 249 250 251 252 251 251 252 251 249 248 248 247 247 246 245 244 244 243 242 242 241 240 241 245 246 246 246 247 246 246 244 240 237
140 135 129 124 123 123 123 122 118 116 116 114 114 119 124 132 146 157 165 178 194 207 218 225 231 237 243 249 252 253 254 254 254 254 254 254 253 251 249 247 246 246 247 247 244 242 241 241 241 241 239 240 243 246 247 247 246 244 243 243 243 241 238
133 132 127 122 121 121 121 119 118 118 118 115 115 118 119 125 135 144 150 161 180 197 213 222 228 232 236 241 248 253 254 256 256 256 256 256 254 252 251 249 247 247 248 246 244 242 241 240 241 242 239 241 244 245 245 245 244 242 241 240 238 238 238
116 120 122 121 119 119 121 119 115 114 113 109 108 108 110 116 122 125 132 141 158 181 202 219 229 236 239 240 243 246 248 251 253 254 256 256 255 253 252 251 249 248 247 246 244 242 242 242 243 243 242 243 245 244 242 242 242 242 242 239 235 234 232
102 104 110 115 118 123 126 124 120 119 116 108 101 94 89 89 85 79 83 77 8 262 270 281 273 267 261 250 247 245 245 247 248 249 251 253 253 254 253 252 251 249 249 250 248 245 245 245 243 244 245 246 246 244 242 241 242 242 242 238 235 233 228
92 93 95 102 111 117 119 118 115 113 108 101 95 89 80 75 65 50 36 10 347 332 316 300 280 269 262 252 246 242 239 239 240 242 245 247 248 250 251 251 252 253 254 256 255 254 254 251 248 248 249 249 249 246 242 245 249 249 246 241 238 234 229
90 92 92 95 101 103 104 104 103 100 96 90 86 81 76 70 63 55 43 27 13 3 351 343 328 290 263 252 249 244 239 238 238 240 245 248 250 251 251 251 250 250 253 256 256 257 257 255 253 253 252 252 254 252 250 255 261 259 250 244 241 237 232
89 87 89 90 92 93 93 94 94 92 90 88 87 88 85 81 77 72 64 56 50 41 34 31 29 25 20 357 309 279 267 260 256 256 259 262 264 265 264 262 258 256 256 258 258 258 258 257 257 256 253 253 254 254 254 259 262 257 251 248 246 239 231
86 82 82 83 84 85 85 85 85 84 84 86 89 90 89 88 86 82 78 77 76 73 71 67 61 55 49 38 31 26 21 24 32 21 355 324 306 300 294 288 283 278 272 266 263 263 262 262 261 260 257 255 253 252 252 254 252 249 248 249 246 239 229
Height
1440 1442 1444 1446 1449 1451 1453 1455 1459 1463 1466 1469 1472 1476 1479 1482 1485 1487 1490 1493 1496 1499 1502 1505 1508 1511 1513 1516 1519 1522 1525 1527 1529 1531 1533 1535 1537 1539 1541 1543 1545 1547 1549 1551 1553 1554 1556 1558 1559 1560 1561 1562 1563 1564 1565 1566 1567 1568 1569 1570 1571 1572 1573
1436 1437 1438 1442 1443 1446 1448 1451 1454 1458 1461 1465 1467 1471 1474 1477 1479 1482 1485 1488 1491 1495 1498 1501 1504 1507 1509 1513 1516 1518 1521 1523 1525 1528 1530 1531 1534 1535 1537 1540 1542 1544 1546 1548 1550 1552 1553 1555 1556 1558 1559 1560 1561 1562 1563 1564 1565 1565 1566 1567 1568 1569 1571
1431 1431 1433 1436 1437 1439 1442 1446 1450 1453 1456 1460 1463 1466 1468 1471 1474 1476 1480 1483 1487 1491 1494 1497 1500 1503 1506 1509 1512 1514 1517 1519 1522 1524 1526 1528 1530 1532 1534 1536 1538 1541 1543 1545 1547 1548 1550 1552 1553 1555 1556 1557 1558 1559 1560 1561 1562 1563 1564 1565 1566 1567 1568
1425 1425 1427 1430 1431 1434 1437 1441 1445 1448 1451 1454 1457 1460 1462 1465 1469 1472 1476 1479 1483 1486 1489 1492 1495 1499 1502 1504 1508 1510 1513 1516 1518 1520 1523 1525 1527 1530 1531 1533 1535 1537 1539 1541 1543 1545 1547 1549 1550 1552 1553 1554 1555 1556 1557 1558 1559 1560 1561 1562 1563 1564 1566
1419 1421 1424 1426 1427 1431 1433 1436 1439 1441 1445 1448 1451 1455 1458 1462 1466 1469 1472 1475 1478 1481 1484 1488 1491 1495 1498 1500 1504 1506 1509 1512 1514 1517 1519 1521 1524 1526 1528 1530 1532 1534 1536 1537 1540 1541 1543 1545 1547 1548 1550 1551 1552 1553 1554 1556 1556 1558 1558 1559 1561 1562 1563
1415 1417 1419 1420 1422 1425 1427 1430 1432 1435 1439 1442 1446 1449 1453 1458 1462 1464 1468 1471 1474 1477 1481 1484 1487 1489 1492 1496 1499 1501 1504 1508 1511 1514 1516 1518 1520 1522 1524 1526 1528 1530 1532 1534 1536 1538 1540 1542 1543 1545 1546 1548 1549 1550 1551 1552 1553 1554 1556 1557 1558 1559 1560
1410 1411 1413 1414 1417 1419 1421 1425 1428 1431 1435 1438 1442 1446 1450 1454 1457 1460 1463 1466 1469 1473 1476 1479 1482 1484 1487 1491 1494 1496 1499 1503 1506 1509 1512 1514 1516 1518 1520 1522 1524 1527 1529 1530 1532 1534 1536 1538 1539 1541 1542 1544 1545 1546 1548 1549 1550 1551 1552 1554 1555 1556 1557
1406 1407 1409 1410 1412 1415 1418 1421 1424 1428 1431 1435 1440 1442 1446 1450 1452 1455 1458 1461 1464 1468 1471 1474 1476 1479 1482 1486 1489 1491 1494 1498 1501 1504 1507 1509 1512 1513 1516 1518 1520 1523 1525 1526 1528 1530 1532 1534 1536 1537 1538 1540 1541 1542 1544 1546 1547 1548 1549 1550 1552 1553 1554
1405 1406 1407 1409 1412 1414 1417 1418 1421 1425 1428 1432 1435 1438 1442 1445 1447 1450 1453 1456 1459 1462 1465 1468 1471 1474 1477 1481 1484 1486 1490 1493 1496 1498 1501 1504 1506 1508 1511 1513 1516 1518 1520 1522 1524 1526 1528 1530 1531 1533 1534 1535 1536 1538 1540 1542 1543 1544 1545 1547 1549 1550 1551
1403 1405 1406 1409 1411 1413 1415 1417 1420 1423 1424 1426 1429 1433 1437 1439 1442 1445 1448 1451 1454 1456 1460 1463 1466 1470 1472 1476 1479 1482 1485 1488 1490 1493 1496 1498 1501 1503 1506 1509 1511 1513 1515 1518 1520 1521 1523 1525 1527 1528 1530 1531 1531 1533 1535 1537 1539 1540 1542 1543 1545 1546 1548
1401 1403 1404 1406 1408 1409 1412 1414 1415 1417 1419 1420 1423 1427 1430 1433 1436 1439 1442 1446 1448 1451 1455 1459 1462 1464 1467 1471 1475 1477 1480 1482 1485 1488 1490 1493 1495 1498 1502 1504 1506 1509 1511 1513 1515 1517 1519 1521 1522 1523 1524 1525 1527 1528 1530 1532 1535 1536 1538 1540 1541 1543 1544
1399 1400 1402 1403 1405 1407 1408 1409 1411 1412 1413 1416 1418 1421 1425 1428 1431 1434 1437 1440 1443 1447 1450 1454 1457 1459 1462 1466 1470 1472 1474 1477 1479 1482 1484 1488 1490 1493 1497 1499 1502 1504 1506 1508 1510 1512 1514 1516 1517 1518 1519 1521 1522 1524 1526 1528 1530 1532 1534 1536 1537 1539 1541
1397 1398 1400 1401 1402 1404 1405 1406 1407 1408 1410 1412 1414 1416 1420 1423 1426 1429 1432 1435 1438 1442 1446 1449 1452 1455 1458 1461 1465 1467 1468 1471 1474 1476 1479 1482 1485 1489 1491 1494 1497 1498 1500 1503 1505 1506 1509 1510 1512 1513 1514 1516 1518 1519 1521 1523 1525 1527 1529 1531 1533 1535 1537
1396 1397 1398 1398 1399 1400 1401 1402 1403 1404 1406 1408 1410 1413 1416 1419 1421 1424 1427 1430 1434 1437 1440 1444 1447 1450 1453 1456 1459 1460 1462 1466 1469 1472 1475 1478 1480 1483 1486 1488 1491 1493 1496 1498 1499 1501 1503 1505 1507 1508 1509 1511 1513 1515 1517 1519 1520 1522 1524 1526 1528 1530 1532
1395 1396 1396 1396 1397 1397 1398 1399 1399 1401 1402 1404 1406 1409 1412 1414 1417 1420 1424 1426 1429 1432 1435 1438 1441 1445 1449 1451 1452 1454 1457 1461 1465 1467 1470 1473 1475 1478 1481 1483 1486 1488 1490 1493 1494 1497 1499 1501 1503 1503 1504 1506 1509 1510 1512 1513 1515 1517 1519 1521 1524 1526 1528
1394 1395 1395 1395 1395 1395 1396 1396 1397 1398 1400 1401 1403 1405 1407 1409 1412 1415 1418 1420 1424 1427 1430 1433 1436 1440 1443 1444 1446 1449 1453 1457 1460 1462 1465 1467 1470 1473 1476 1478 1481 1483 1485 1487 1490 1492 1494 1496 1497 1498 1500 1502 1504 1505 1506 1508 1509 1511 1514 1517 1519 1522 1524
1393 1394 1394 1394 1395 1394 1394 1394 1394 1395 1396 1397 1399 1400 1402 1404 1406 1410 1413 1416 1419 1422 1425 1429 1432 1435 1437 1438 1441 1446 1449 1452 1455 1457 1459 1462 1465 1467 1470 1473 1476 1478 1480 1483 1485 1487 1489 1491 1492 1494 1496 1497 1499 1500 1501 1502 1504 1507 1509 1512 1515 1517 1519
1392 1392 1391 1392 1393 1392 1392 1392 1392 1392 1393 1393 1394 1396 1398 1400 1402 1406 1408 1411 1414 1418 1421 1425 1427 1429 1431 1434 1438 1442 1445 1447 1450 1452 1455 1457 1459 1462 1465 1469 1471 1473 1475 1477 1480 1482 1484 1486 1488 1489 1491 1492 1494 1495 1496 1497 1499 1502 1505 1507 1510 1513 1515
1389 1389 1389 1389 1389 1390 1390 1389 1389 1389 1389 1390 1391 1391 1393 1396 1399 1401 1403 1406 1410 1414 1418 1420 1422 1425 1427 1430 1434 1437 1439 1443 1445 1447 1450 1451 1454 1457 1461 1463 1466 1467 1470 1472 1475 1477 1479 1481 1483 1485 1486 1487 1489 1490 1492 1493 1495 1498 1500 1503 1506 1508 1511
1386 1386 1385 1386 1386 1386 1386 1386 1385 1386 1386 1386 1387 1388 1391 1394 1396 1399 1402 1405 1408 1411 1414 1416 1418 1421 1423 1426 1429 1432 1435 1438 1440 1442 1445 1447 1450 1453 1455 1458 1460 1462 1465 1467 1470 1472 1474 1476 1478 1480 1482 1483 1484 1486 1487 1488 1490 1492 1495 1498 1501 1504 1506
1382 1383 1382 1382 1382 1383 1383 1382 1382 1382 1382 1383 1384 1385 1388 1390 1393 1396 1400 1403 1406 1408 1411 1413 1416 1418 1420 1423 1425 1428 1431 1433 1436 1438 1440 1443 1446 1448 1450 1453 1455 1457 1460 1462 1465 1467 1469 1471 1473 1475 1476 1478 1479 1481 1482 1483 1485 1487 1490 1493 1497 1500 1503
1379 1380 1380 1379 1379 1379 1379 1379 1379 1378 1379 1379 1380 1382 1384 1386 1389 1393 1396 1399 1402 1405 1408 1410 1412 1415 1417 1420 1422 1425 1428 1430 1433 1435 1437 1440 1442 1444 1446 1448 1450 1452 1455 1457 1460 1462 1463 1465 1467 1469 1470 1472 1473 1474 1475 1478 1480 1481 1485 1489 1493 1496 1499
1376 1377 1377 1376 1376 1376 1376 1377 1376 1376 1376 1376 1377 1379 1381 1384 1387 1390 1393 1396 1398 1401 1404 1406 1408 1411 1413 1416 1418 1421 1424 1428 1430 1432 1434 1436 1438 1439 1441 1443 1445 1447 1450 1452 1454 1455 1457 1459 1461 1463 1464 1466 1467 1468 1470 1473 1475 1476 1480 1484 1488 1492 1494
1374 1374 1374 1374 1374 1374 1374 1374 1374 1374 1374 1374 1375 1377 1379 1382 1384 1387 1390 1392 1395 1398 1401 1403 1405 1407 1409 1411 1414 1418 1421 1423 1425 1427 1430 1431 1432 1434 1436 1438 1441 1442 1444 1446 1448 1449 1451 1453 1455 1457 1459 1460 1461 1463 1465 1468 1470 1471 1474 1478 1483 1486 1488
1373 1373 1373 1373 1373 1372 1372 1372 1372 1372 1372 1372 1374 1375 1377 1380 1382 1385 1387 1389 1392 1395 1397 1399 1401 1403 1406 1409 1412 1415 1417 1419 1420 1423 1425 1426 1427 1430 1432 1434 1436 1438 1440 1442 1443 1444 1446 1448 1449 1451 1452 1453 1455 1457 1459 1461 1463 1465 1467 1471 1476 1479 1483
1372 1372 1372 1372 1372 1371 1370 1371 1371 1371 1371 1372 1373 1374 1377 1379 1381 1383 1385 1388 1391 1393 1395 1397 1400 1402 1405 1408 1410 1413 1414 1415 1417 1418 1420 1422 1424 1426 1428 1430 1432 1434 1436 1438 1439 1440 1442 1443 1443 1444 1444 1446 1447 1449 1451 1453 1455 1457 1459 1464 1468 1472 1476
1371 1371 1371 1371 1371 1370 1370 1370 1370 1370 1370 1371 1373 1374 1376 1377 1379 1382 1384 1387 1389 1391 1394 1396 1398 1401 1403 1405 1407 1409 1410 1412 1413 1415 1417 1419 1421 1423 1425 1427 1429 1430 1431 1432 1434 1435 1436 1437 1438 1438 1439 1440 1442 1443 1444 1445 1448 1450 1453 1456 1461 1465 1468
1370 1370 1370 1370 1370 1370 1370 1370 1370 1370 1371 1372 1373 1374 1376 1377 1379 1381 1383 1385 1388 1390 1392 1394 1396 1398 1400 1402 1403 1405 1407 1408 1410 1412 1414 1416 1417 1419 1420 1422 1424 1426 1427 1428 1429 1430 1431 1432 1433 1434 1435 1437 1439 1440 1441 1443 1444 1446 1447 1449 1453 1457 1460
1370 1370 1370 1370 1370 1370 1370 1370 1370 1370 1371 1372 1373 1374 1376 1377 1378 1380 1382 1384 1386 1388 1390 1392 1394 1396 1398 1399 1401 1402 1404 1405 1407 1409 1411 1412 1413 1414 1416 1418 1419 1420 1422 1424 1425 1426 1426 1427 1428 1429 1431 1433 1435 1435 1437 1440 1441 1441 1443 1444 1446 1449 1452
1370 1370 1370 1370 1370 1370 1370 1370 1370 1371 1372 1372 1374 1375 1376 1377 1378 1379 1381 1382 1384 1386 1388 1390 1392 1393 1395 1396 1398 1400 1402 1403 1405 1406 1407 1408 1410 1412 1413 1415 1416 1417 1418 1419 1420 1422 1423 1423 1423 1424 1425 1427 1428 1428 1430 1432 1433 1433 1436 1438 1441 1443 1445
1370 1370 1370 1370 1370 1370 1370 1370 1371 1372 1373 1373 1374 1375 1376 1377 1378 1379 1380 1382 1383 1385 1386 1388 1389 1391 1392 1394 1396 1397 1399 1400 1402 1403 1404 1406 1407 1408 1410 1411 1413 1414 1415 1415 1417 1418 1419 1419 1419 1419 1419 1420 1420 1419 1420 1422 1423 1425 1426 1430 1435 1439 1440
1370 1370 1370 1370 1370 1370 1370 1371 1371 1372 1373 1374 1375 1376 1376 1378 1378 1379 1380 1381 1383 1384 1385 1386 1387 1389 1390 1392 1393 1395 1396 1398 1399 1401 1402 1403 1405 1405 1407 1408 1409 1410 1411 1412 1413 1413 1413 1414 1415 1415 1415 1414 1412 1411 1412 1414 1415 1417 1419 1422 1427 1432 1436
1370 1370 1370 1370 1370 1370 1370 1370 1371 1372 1373 1374 1375 1376 1377 1377 1378 1379 1380 1381 1383 1384 1385 1386 1386 1388 1389 1390 1391 1393 1394 1395 1397 1398 1399 1400 1402 1402 1404 1405 1406 1407 1407 1408 1408 1409 1409 1410 1410 1411 1412 1411 1409 1409 1411 1411 1410 1411 1413 1415 1419 1423 1428
1371 1370 1370 1369 1370 1370 1369 1370 1371 1372 1372 1373 1374 1375 1376 1377 1378 1379 1380 1381 1382 1383 1384 1385 1386 1387 1388 1389 1390 1391 1391 1392 1394 1395 1396 1397 1398 1399 1400 1401 1402 1402 1402 1402 1402 1404 1404 1404 1405 1405 1405 1406 1407 1408 1409 1407 1405 1404 1405 1407 1410 1415 1421
1371 1370 1370 1369 1369 1369 1369 1369 1370 1371 1372 1373 1374 1375 1376 1376 1377 1378 1378 1379 1380 1380 1382 1383 1384 1385 1386 1386 1387 1388 1389 1389 1390 1391 1392 1393 1394 1395 1396 1397 1398 1398 1398 1397 1398 1399 1399 1400 1400 1400 1399 1400 1402 1403 1402 1399 1397 1398 1400 1402 1405 1411 1418
1373 1372 1371 1371 1370 1370 1370 1370 1371 1371 1372 1372 1373 1374 1374 1375 1376 1376 1377 1378 1378 1378 1379 1380 1381 1382 1383 1384 1385 1385 1386 1386 1387 1388 1389 1389 1390 1391 1391 1392 1393 1394 1394 1394 1394 1395 1395 1394 1394 1395 1395 1395 1395 1395 1393 1390 1390 1393 1395 1396 1399 1404 1410
1373 1373 1372 1371 1370 1369 1369 1369 1370 1370 1371 1372 1373 1374 1375 1375 1376 1377 1378 1378 1378 1378 1379 1379 1380 1380 1381 1382 1383 1383 1384 1384 1385 1386 1387 1387 1387 1387 1387 1388 1389 1390 1390 1390 1389 1389 1390 1389 1388 1388 1388 1388 1387 1386 1384 1382 1384 1387 1387 1387 1390 1394 1397
1373 1372 1370 1368 1367 1367 1367 1367 1368 1369 1370 1372 1374 1375 1376 1377 1378 1379 1380 1380 1380 1380 1380 1380 1380 1380 1380 1381 1381 1381 1382 1383 1383 1384 1385 1385 1385 1385 1385 1385 1384 1385 1386 1385 1385 1384 1383 1383 1382 1381 1380 1379 1379 1377 1376 1374 1375 1377 1379 1381 1384 1387 1391